Flag for Canada Weather past 2 weeks in Kuujjuaq, Quebec, Canada

Now
68 °F

Scattered clouds.


Feels Like: 68 °F
Forecast: 46 / 71 °F
Wind: 8 mph from Southwest

Location: Kuujjuaq

Current Time: Jul 31, 2014 at 11:47:21 AM

Latest Report: Jul 31, 2014 at 11:00 AM


Visibility: 15 mi

Pressure: 30.03 "Hg

Humidity: 60%

Dew point: 54 °F

Location of KuujjuaqLocation

Historic Weather in Kuujjuaq — Graph

°F

Kuujjuaq temperature yesterday

Maximum temperature yesterday: 57 °F (at 5:00 PM)
Minimum temperature yesterday: 46 °F (at 7:00 AM)
Average temperature yesterday: 50 °F

Past Weeks' High & Low Weather Summary

 TemperatureHumidityPressure
High88 °F (Jul 21, 3:00 PM)100% (Jul 26, 3:00 AM)30.04 "Hg (Jul 26, 3:00 AM)
Low39 °F (Jul 27, 2:50 AM)24% (Jul 16, 5:00 PM)29.41 "Hg (Jul 22, 1:00 PM)
Average58 °F71%29.73 "Hg
* Reported Jul 16 10:00 AM — Jul 31 10:00 AM, Kuujjuaq, Weather by CustomWeather, © 2014

Note: Actual official high and low records may vary slightly from our data, if they occured in-between our weather recording intervals... More about our weather records

Advertising

Kuujjuaq weather history for previous 24 hours

 ConditionsComfort  
Time TempWeatherWind HumidityBarometerVisibility
10:00 AM
Jul 31
64 °FScattered clouds.6 mph68%30.04 "Hg15 mi
9:00 AM63 °FPassing clouds.6 mph73%30.04 "Hg15 mi
8:00 AM57 °FPassing clouds.8 mph82%30.04 "Hg15 mi
7:00 AM54 °FPassing clouds.5 mph94%30.04 "Hg15 mi
6:00 AM46 °FPassing clouds.3 mph100%30.03 "Hg15 mi
5:00 AM46 °FPassing clouds.5 mph93%30.03 "Hg15 mi
4:00 AM46 °FFog.6 mph100%30.01 "Hg15 mi
3:00 AM48 °FPassing clouds.2 mph100%30.00 "Hg15 mi
2:00 AM48 °FPassing clouds.6 mph94%29.98 "Hg15 mi
1:00 AM48 °FPassing clouds.6 mph94%29.96 "Hg15 mi
12:00 AM50 °FPassing clouds.5 mph94%29.95 "Hg15 mi
11:00 PM
Jul 30
50 °FPassing clouds.8 mph94%29.94 "Hg15 mi
10:00 PM52 °FPartly cloudy.5 mph94%29.93 "Hg15 mi
9:00 PM54 °FPartly sunny.7 mph88%29.91 "Hg15 mi
8:00 PM55 °FBroken clouds.6 mph82%29.89 "Hg15 mi
7:00 PM55 °FBroken clouds.10 mph82%29.88 "Hg15 mi
6:00 PM57 °FBroken clouds.16 mph77%29.85 "Hg15 mi
5:00 PM57 °FPartly sunny.16 mph77%29.83 "Hg15 mi
4:00 PM52 °FPartly sunny.9 mph88%29.81 "Hg15 mi
3:00 PM50 °FBroken clouds.10 mph88%29.80 "Hg15 mi
2:00 PM48 °FLow clouds.12 mph87%29.77 "Hg15 mi
1:00 PM46 °FLight rain. Fog.8 mph93%29.74 "Hg4 mi
12:00 PM46 °FLight rain. Fog.9 mph93%29.71 "Hg4 mi
11:00 AM46 °FLight rain. Fog.8 mph93%29.68 "Hg4 mi
Weather by CustomWeather, © 2014

See weather overviewHow to use our weather pages